Flag for Faroe Islands Weather past 2 weeks in Tórshavn, Faroe Islands, Faroe Islands

48 °F

Sprinkles. Low clouds.

Feels Like: 40 °F
Forecast: 42 / 50 °F
Wind: 24 mph from West

Location: Soervaag / Vagar

Current Time: Nov 26, 2015 at 10:56:45 AM

Latest Report: Nov 26, 2015 at 10:20 AM

Visibility: 2 mi

Pressure: 29.36 "Hg

Humidity: 94%

Dew point: 46 °F

Location of TórshavnLocation

Historic Weather in Tórshavn — Graph


Tórshavn temperature yesterday

Maximum temperature yesterday: 45 °F (at 11:20 PM)
Minimum temperature yesterday: 32 °F (at 7:20 PM)
Average temperature yesterday: 38 °F

Past Weeks' High & Low Weather Summary

High48 °F (Nov 12, 6:50 PM)100% (Nov 15, 4:50 AM)30.07 "Hg (Nov 15, 4:50 AM)
Low28 °F (Nov 21, 2:50 AM)51% (Nov 20, 9:20 PM)28.56 "Hg (Nov 13, 2:20 AM)
Average41 °F81%29.39 "Hg
* Reported Nov 11 9:50 AM — Nov 26 9:20 AM, Tórshavn, Weather by CustomWeather, © 2015

Note: Actual official high and low records may vary slightly from our data, if they occured in-between our weather recording intervals... More about our weather records


Tórshavn weather history for previous 24 hours

Time TempWeatherWind HumidityBarometerVisibility
9:20 AM
Thu, Nov 26
48 °FDrizzle. Fog.15 mph100%29.39 "Hg3 mi
8:50 AM48 °FDrizzle. Low clouds.15 mph100%29.39 "Hg2 mi
8:20 AM48 °FDrizzle. Low clouds.13 mph100%29.42 "Hg2 mi
7:50 AM48 °FFog.16 mph94%29.42 "Hg1 mi
7:20 AM48 °FLow clouds.23 mph94%29.45 "Hg3 mi
6:20 AM48 °FLow clouds.24 mph94%29.45 "Hg5 mi
5:50 AM48 °FLow clouds.20 mph94%29.47 "HgN/A
5:20 AM48 °FLow clouds.21 mph94%29.47 "Hg5 mi
4:50 AM48 °FDrizzle. Fog.15 mph94%29.47 "Hg2 mi
4:20 AM46 °FLight rain. Low clouds.15 mph100%29.47 "Hg2 mi
3:50 AM46 °FLight rain. Fog.10 mph100%29.50 "Hg1 mi
3:20 AM46 °FDrizzle. Fog.13 mph100%29.53 "Hg1 mi
2:50 AM46 °FSprinkles. Mostly cloudy.16 mph93%29.56 "Hg1 mi
2:20 AM45 °FSprinkles. Mostly cloudy.16 mph100%29.56 "Hg1 mi
1:50 AM45 °FSprinkles. Low clouds.15 mph93%29.59 "Hg4 mi
1:20 AM45 °FDrizzle. Fog.10 mph87%29.62 "Hg2 mi
12:20 AM43 °FPassing clouds.9 mph87%29.62 "HgN/A
11:50 PM
Wed, Nov 25
43 °FPassing clouds.10 mph93%29.65 "Hg4 mi
11:20 PM45 °FOvercast.2 mph81%29.68 "HgN/A
10:50 PM43 °FOvercast.No wind87%29.68 "HgN/A
10:20 PM37 °FOvercast.2 mph81%29.68 "HgN/A
9:50 PM37 °FPassing clouds.5 mph81%29.68 "HgN/A
9:20 PM37 °FPartly cloudy.1 mph81%29.71 "HgN/A
8:50 PM36 °FPartly cloudy.No wind81%29.71 "HgN/A
8:20 PM34 °FOvercast.No wind87%29.74 "HgN/A
7:50 PM34 °FPassing clouds.1 mph87%29.74 "HgN/A
7:20 PM32 °FChilly.No wind93%29.74 "HgN/A
6:50 PM34 °FPassing clouds.No wind87%29.74 "HgN/A
6:20 PM34 °FPassing clouds.1 mph87%29.74 "HgN/A
5:50 PM36 °FPassing clouds.1 mph81%29.71 "HgN/A
5:20 PM37 °FPassing clouds.1 mph81%29.74 "HgN/A
4:50 PM37 °FPassing clouds.2 mph81%29.71 "HgN/A
4:20 PM37 °FPartly cloudy.3 mph81%29.74 "HgN/A
3:50 PM39 °FPassing clouds.7 mph75%29.71 "HgN/A
3:20 PM39 °FPartly sunny.8 mph75%29.71 "HgN/A
2:50 PM37 °FPartly sunny.2 mph81%29.71 "HgN/A
2:20 PM39 °FBroken clouds.3 mph70%29.71 "HgN/A
1:50 PM39 °FPartly sunny.6 mph75%29.71 "HgN/A
1:20 PM39 °FPartly sunny.7 mph70%29.71 "HgN/A
12:50 PM39 °FPartly sunny.9 mph70%29.71 "HgN/A
12:20 PM39 °FPartly sunny.9 mph70%29.71 "HgN/A
11:50 AM39 °FPartly sunny.8 mph70%29.71 "HgN/A
11:22 AM39 °FPartly sunny.8 mph70%29.68 "HgN/A
Weather by CustomWeather, © 2015

See weather overviewHow to use our weather pages